Location: Sternwarte ZA, Rosenfeld-Brittheim
(48.2889°N, 8.6789°E)
Time: 21:32:25
(UTC+02:00)

ISS - Pass Details

Date: 22 May 2017
Orbit: 402 x 409 km, 51.6° (Epoch: 25 May)

Event Time Altitude Azimuth Distance (km) Brightness Sun altitude
Rises 03:40:00 0° 289° (WNW) 2,331 -0.1 -14.7°
Reaches altitude 10° 03:42:07 10° 293° (WNW) 1,468 -1.1 -14.5°
Maximum altitude 03:45:22 56° 13° (NNE) 487 -3.1 -14.2°
Drops below altitude 10° 03:48:35 10° 93° (E) 1,461 -0.6 -13.9°
Sets 03:50:41 0° 98° (E) 2,318 0.4 -13.7°
